Williams Lake Airport
CYWL : rendu visible

Aérodrome :











RETROUVEZ-NOUS SUR...

 
LOGIN :

S'inscrire | Disclaimer

   EN    FR    IT 

 









Légende :    VFR   VFR Marginal   IFR   IFR Intensif   IFR Très Intensif
Visi : 
Plafond : 
>= 8 km
>= 3000ft
5 à 8 km
1000 à 3000 ft
1500m à 5 km
500 à 1000 ft
800 à 1500m
200 à 500 ft
< 800m
< 200 ft
Symboles :   Orages  Brouillard  Fortes neiges  Fortes précipitations  Vent > 20 kt






- Altitude de l'aérodrome : 3085 ft
- Code IATA : YWL


CYWL - Williams Lake

DERNIER METAR :
  • 091400Z 22003KT 15SM SCT075 09/04 A3028 RMK AC4 SLP266

METARs EXPIRÉS :
  • 091300Z 24004KT 15SM SCT075 08/04 A3027 RMK AC4 SLP262
  • 091200Z VRB02KT 15SM BKN070 BKN200 08/04 A3026 RMK AC6CI1 CI TR SLP259

TAF TAF CYWL
Valide du 09 à 13h jusqu'au 10 à 01h UTC


091242Z 0913/1001 VRB03KT P6SM BKN080
FM092100 13006KT P6SM SCT050 BKN100
TEMPO 0921/1001 P6SM -SHRA RMK NXT FCST BY 091900Z
FIR CZVR / Amérique du Nord



MET'MAP, la Météo Aéronautique d'un coup d'oeil ! - Copyright ORBIFLY Décembre 2007 - Disclaimer

ORBIFLY MET'MAP TEAM :

Programmation & Développement : Alexandra Zaïnal
Sur une idée originale de : Baudouin d'Aumeries
Assistance à la programmation : Marc-Olivier Méhu
Soutien technique & logistique : Manuel Goepfert

Contact : metmap@orbifly.com




SOURCES & CREDITS :

   NOAA       Earth
Advisory